Weather observations for the past three days for
St. Louis Regional Airport
Imperial (Metric)
Date Time (cdt) Wind (mph) Vis. (mi.) Weather Sky Cond. Temperature (ºF) Relative Humidity Wind Chill (°F) Heat Index (°F) Pressure Precipitation (in)
Air Dwpt 6 hour altimeter (in) sea level (mb) 1 hr 3 hr 6 hr
Max. Min.
22 00:15 Calm 10.00 Overcast OVC085 66.9 65.8 96% 30.08 0.0
21 23:55 Calm 10.00 Partly Cloudy SCT085 66.6 65.8 98% 30.08 0.0
21 23:35 Calm 10.00 Fair CLR 66.9 66.4 98% 30.08 0.0
21 23:15 Calm 10.00 Fair CLR 68.4 65.8 92% 30.08 0.0
21 22:55 Calm 10.00 Fair CLR 68.7 66 91% 30.08 0.0
21 22:35 Calm 10.00 Partly Cloudy SCT120 68.4 66.4 93% 30.08 0.0
21 22:15 Calm 10.00 Partly Cloudy SCT120 70.5 64.2 81% 30.08 0.0
21 21:50 Vrbl 5 10.00 Fair CLR 71.6 64.4 78% 30.07 0.0
21 20:50 Calm 10.00 Fair CLR 69.8 60.8 73% 30.06 0.0
21 19:50 Vrbl 3 10.00 A Few Clouds FEW100 75.2 62.6 65% 77 30.06 0.0
21 18:50 Vrbl 5 10.00 A Few Clouds FEW050 78.8 60.8 54% 80 30.04 0.0
21 17:50 Vrbl 6 10.00 Partly Cloudy SCT050 78.8 60.8 54% 80 30.05 0.0
21 16:50 Vrbl 5 10.00 Partly Cloudy SCT050 80.6 62.6 54% 82 30.06 0.0
21 15:50 SE 7 10.00 Partly Cloudy SCT050 SCT100 78.8 60.8 54% 80 30.08 0.0
21 14:50 Vrbl 6 10.00 Mostly Cloudy SCT044 BKN050 78.8 62.6 58% 80 30.1 0.0
21 13:50 Vrbl 5 10.00 Mostly Cloudy SCT041 BKN050 78.8 62.6 58% 80 30.11 0.0
21 12:50 Vrbl 5 10.00 Mostly Cloudy SCT035 BKN050 78.8 60.8 54% 80 30.13 0.0
21 11:50 Vrbl 3 10.00 Partly Cloudy SCT060 78.8 64.4 61% 81 30.13 0.0
21 10:50 NE 3 10.00 Fair CLR 75.2 62.6 65% 77 30.12 0.0
21 09:50 NE 6 10.00 Partly Cloudy SCT120 71.6 62.6 73% 30.11 0.0
21 08:50 NE 7 10.00 Partly Cloudy SCT050 71.6 64.4 78% 30.11 0.0
21 07:50 NE 7 10.00 Fair CLR 68 64.4 88% 30.11 0.0
21 06:50 N 6 10.00 Partly Cloudy SCT045 SCT110 68 62.6 83% 30.11 0.0
21 06:35 Calm 10.00 Partly Cloudy SCT110 68 62.8 83% 30.1 0.0
21 06:15 Calm 10.00 Partly Cloudy SCT110 67.3 63 86% 30.09 0.0
21 05:55 Calm 10.00 Fair CLR 67.5 63 86% 30.09 0.0
21 05:35 Calm 10.00 Fair CLR 67.1 63.7 89% 30.09 0.0
21 05:15 Calm 10.00 Partly Cloudy SCT065 67.3 63.7 88% 30.09 0.0
21 04:55 Calm 10.00 Partly Cloudy SCT065 SCT120 67.6 63.1 86% 30.09 0.0
21 04:35 Calm 10.00 Mostly Cloudy BKN065 BKN120 67.6 63.5 87% 30.09 0.0
21 04:15 Calm 10.00 Fair CLR 68 63.5 86% 30.09 0.0
21 03:55 Calm 10.00 Partly Cloudy SCT049 SCT070 68.2 63 84% 30.09 0.0
21 03:35 Calm 10.00 Overcast SCT049 OVC070 68 63.5 86% 30.1 0.0
21 03:15 Calm 10.00 Mostly Cloudy BKN070 68.4 63.5 85% 30.1 0.0
21 02:55 Calm 10.00 Partly Cloudy SCT070 68.4 63.5 85% 30.1 0.0
21 02:35 Calm 10.00 Fair CLR 68.5 63.1 83% 30.1 0.0
21 02:15 Calm 10.00 Fair CLR 68.5 63.3 84% 30.1 0.0
21 01:55 Calm 10.00 Partly Cloudy SCT050 SCT065 68.5 63.1 83% 30.11 0.0
21 01:35 Calm 10.00 Mostly Cloudy SCT050 BKN065 68.9 62.8 81% 30.11 0.0
21 01:15 Calm 10.00 Partly Cloudy SCT050 68.7 63 82% 30.11 0.0
21 00:55 Calm 10.00 Fair CLR 69.3 62.4 75.4 68.5 79% 30.11 0.0
21 00:35 Calm 10.00 Fair CLR 68.9 62.8 81% 30.11 0.0
21 00:15 Calm 10.00 Fair CLR 68.9 62.8 81% 30.1 0.0
20 23:55 Calm 10.00 Fair CLR 68.9 62.8 81% 30.1 0.0
20 23:35 Calm 10.00 Fair CLR 68.7 63 82% 30.1 0.0
20 23:15 Calm 10.00 Fair CLR 69.3 62.6 79% 30.09 0.0
20 22:55 Calm 10.00 Fair CLR 68.5 63.9 85% 30.1 0.0
20 22:35 Calm 10.00 Partly Cloudy SCT048 69.1 63.5 83% 30.1 0.0
20 22:15 Calm 10.00 Mostly Cloudy BKN048 69.1 64 84% 30.1 0.0
20 21:50 N 6 10.00 Fair CLR 69.8 62.6 78% 30.1 0.0
20 20:50 N 5 10.00 Fair CLR 71.6 62.6 73% 30.09 0.0
20 18:50 Vrbl 6 10.00 A Few Clouds FEW060 75.2 59 57% 78 30.08 0.0
20 17:50 Vrbl 7 10.00 A Few Clouds FEW060 78.8 59 51% 80 30.08 0.0
20 16:50 NE 10 10.00 Partly Cloudy SCT060 77 59 54% 79 30.09 0.0
20 15:50 Vrbl 7 10.00 Mostly Cloudy BKN060 78.8 59 51% 80 30.09 0.0
20 14:50 Vrbl 6 10.00 Mostly Cloudy BKN050 78.8 59 51% 80 30.11 0.0
20 13:50 Vrbl 5 10.00 Mostly Cloudy BKN055 77 59 54% 79 30.12 0.0
20 12:50 Vrbl 6 10.00 Partly Cloudy SCT055 77 57.2 51% 79 30.12 0.0
20 11:50 Vrbl 6 10.00 Partly Cloudy SCT055 77 57.2 51% 79 30.13 0.0
20 10:50 Vrbl 5 10.00 Partly Cloudy SCT055 77 57.2 51% 79 30.14 0.0
20 09:50 Vrbl 5 10.00 Partly Cloudy SCT055 73.4 60.8 65% 30.14 0.0
20 08:50 Vrbl 5 10.00 Partly Cloudy SCT055 68 62.6 83% 30.14 0.0
20 07:50 Vrbl 3 10.00 A Few Clouds FEW060 64.4 60.8 88% 30.13 0.0
20 06:50 Vrbl 3 10.00 Fair CLR 60.8 57.2 88% 30.11 0.0
20 06:35 Calm 10.00 NULL NULL 58.6 58.3 99% 30.11 0.0
20 06:15 Calm 7.00 Fair CLR 57.6 57.2 99% 30.11 0.0
20 05:55 Calm 10.00 Fair CLR 57.7 57.4 99% 30.1 0.0
20 05:35 Calm 10.00 Fair CLR 57.9 57.6 99% 30.1 0.0
20 05:15 Calm 10.00 Partly Cloudy SCT050 57.7 57.4 99% 30.1 0.0
20 04:55 Calm 10.00 Partly Cloudy SCT050 58.3 57.9 99% 30.1 0.0
20 04:35 Calm 10.00 Fair CLR 58.6 58.3 99% 30.1 0.0
20 04:15 Calm 10.00 Fair CLR 59.2 58.8 99% 30.1 0.0
20 03:55 Calm 10.00 Fair CLR 59 58.5 98% 30.1 0.0
20 03:35 Calm 10.00 Partly Cloudy SCT050 59.4 59 99% 30.09 0.0
20 03:15 Calm 10.00 Mostly Cloudy BKN050 60.3 59.5 97% 30.1 0.0
20 02:55 Calm 10.00 Overcast OVC050 61.2 59.9 96% 30.1 0.0
20 02:35 Calm 10.00 Overcast OVC050 61.7 59.4 92% 30.11 0.0
20 02:15 Calm 10.00 Mostly Cloudy BKN050 61.3 59.5 94% 30.11 0.0
20 01:55 Calm 10.00 Fair CLR 62.1 59.9 93% 30.11 0.0
20 01:35 Calm 10.00 Fair CLR 61.3 60.3 96% 30.11 0.0
20 01:15 Calm 10.00 Fair CLR 61.9 60.3 94% 30.12 0.0
20 00:55 Calm 10.00 Fair CLR 61 60.3 75.2 60.8 98% 30.12 0.0
20 00:35 Calm 10.00 Fair CLR 60.8 60.1 98% 30.12 0.0
20 00:15 Calm 10.00 Fair CLR 62.6 60.8 94% 30.13 0.0
19 23:55 Calm 10.00 Fair CLR 61.7 61 98% 30.12 0.0
19 23:35 Calm 10.00 Fair CLR 61.9 61.2 98% 30.11 0.0
19 23:15 Calm 10.00 Fair CLR 62.8 61.3 95% 30.12 0.0
19 22:55 Calm 10.00 Fair CLR 64.2 60.6 88% 30.11 0.0
19 22:35 Calm 10.00 Partly Cloudy SCT050 65.5 59.7 82% 30.12 0.0
19 22:15 Calm 10.00 Partly Cloudy SCT050 66 59.7 80% 30.12 0.0
19 21:50 N 7 10.00 Fair CLR 68 59 73% 30.13 0.0
19 20:50 Vrbl 6 10.00 Fair CLR 69.8 59 69% 30.11 0.0
19 19:50 Vrbl 6 10.00 Fair CLR 73.4 57.2 57% 30.1 0.0
19 18:50 Vrbl 6 10.00 A Few Clouds FEW050 75.2 57.2 54% 78 30.1 0.0
19 17:50 Vrbl 6 10.00 A Few Clouds FEW050 77 55.4 47% 79 30.11 0.0
19 16:50 Vrbl 6 10.00 Partly Cloudy SCT050 77 55.4 47% 79 30.12 0.0
19 15:50 Vrbl 7 10.00 A Few Clouds FEW055 77 53.6 44% 78 30.13 0.0
19 14:50 Vrbl 6 10.00 A Few Clouds FEW100 77 51.8 42% 78 30.15 0.0
19 13:50 Vrbl 6 10.00 A Few Clouds FEW100 75.2 51.8 44% 78 30.17 0.0
19 12:46 NE 8 10.00 A Few Clouds FEW060 75.2 51.8 44% 78 30.18 0.0
19 11:50 Vrbl 6 10.00 A Few Clouds FEW060 73.4 53.6 50% 30.19 0.0
19 10:50 E 9 10.00 Fair CLR 73.4 55.4 53% 30.19 0.0
19 09:50 NE 8 10.00 Fair CLR 71.6 55.4 57% 30.2 0.0
19 08:50 Vrbl 5 10.00 Fair CLR 68 57.2 69% 30.21 0.0
19 07:50 Vrbl 5 10.00 Fair CLR 64.4 59 83% 30.21 0.0
19 06:50 Calm 10.00 Fair CLR 59 59 100% 30.2 0.0
19 06:35 Calm 10.00 Fair CLR 58.3 57.9 99% 30.2 0.0
19 06:15 Calm 7.00 Fair CLR 57.4 57 99% 30.2 0.0
19 05:55 Calm 10.00 Fair CLR 56.5 56.3 99% 30.19 0.0
19 05:35 Calm 10.00 Fair CLR 56.8 56.5 99% 30.19 0.0
19 05:15 Calm 10.00 Fair CLR 57.4 57.2 99% 30.19 0.0
19 04:55 Calm 10.00 Fair CLR 57.4 56.8 98% 30.19 0.0
19 04:35 Calm 10.00 Fair CLR 57.7 57.4 99% 30.18 0.0
19 04:15 Calm 10.00 Fair CLR 58.6 58.3 99% 30.18 0.0
19 03:55 Calm 10.00 Fair CLR 59.5 59.2 99% 30.18 0.0
19 03:35 Calm 10.00 Fair CLR 60.1 59 96% 30.18 0.0
19 03:15 Calm 10.00 Fair CLR 61.3 58.1 89% 30.18 0.0
19 02:55 Calm 10.00 Fair CLR 61.9 57.7 86% 30.18 0.0
19 02:35 Calm 10.00 Fair CLR 62.1 57.7 86% 30.18 0.0
19 02:15 Calm 10.00 Fair CLR 62.6 57.7 84% 30.18 0.0
19 01:55 Calm 10.00 Fair CLR 62.8 57.7 84% 30.18 0.0
19 01:35 Calm 10.00 Fair CLR 63.1 57.6 82% 30.18 0.0
19 01:15 Calm 10.00 Fair CLR 63.5 57.4 81% 30.18 0.0
19 00:55 Calm 10.00 Fair CLR 63.9 57.4 75.2 63.9 80% 30.18 0.0
Date Time (cdt) Wind (mph) Vis. (mi.) Weather Sky Cond. Air Dwpt Max. Min. Relative Humidity Wind Chill (°F) Heat Index (°F) altimeter (in) sea level (mb) 1 hr 3 hr 6 hr
6 hour
Temperature (ºF) Pressure Precipitation (in)